State College, PA

8:30 AM EDT on March 23, 2017 (GMT -0400)
University Park

Weather History for KUNV - May, 2014

Change the Weather History Date:

Tuesday, May 6, 2014

  Actual Average Record
Temperature  
Mean Temperature 58 °F -  
Max Temperature 71 °F 66 °F 92 °F (1949)
Min Temperature 45 °F 43 °F 32 °F (1983)
Degree Days  
Heating Degree Days 7    
Growing Degree Days 8 (Base 50)    
Moisture  
Dew Point 27 °F    
Average Humidity 35    
Maximum Humidity 62    
Minimum Humidity 14    
Precipitation  
Precipitation 0.00 in - - ()
Sea Level Pressure  
Sea Level Pressure 29.97 in    
Wind  
Wind Speed 3 mph (NNE)    
Max Wind Speed 10 mph    
Max Gust Speed 16 mph    
Visibility 10 miles    
Events      
Averages and records for this station are not official NWS values.
T = Trace of Precipitation, MM = Missing Value Source: NWS Daily Summary

Daily Weather History Graph

Daily Weather History Graph

Search for Another Location

Airport or City:

Trip Planner

Search our weather history database for the weather conditions in past years. The results will help you decide how hot, cold, wet, or windy it might be!

Date:

Astronomy

May. 06, 2014 Rise Set
Actual Time 6:03 AM EDT 8:13 PM EDT
Civil Twilight 5:33 AM EDT 8:43 PM EDT
Nautical Twilight 4:56 AM EDT 9:20 PM EDT
Astronomical Twilight 4:15 AM EDT 10:01 PM EDT
Moon 12:18 PM EDT (5/6) 1:30 AM EDT (5/6)
Length of Visible Light 15h 10m
Length of Day
14h 09m
Waxing Crescent, 46% of the Moon is Illuminated
May 6
Waxing Crescent
May 6
First Quarter
May 14
Full
May 21
Last Quarter
May 28
New

Hourly Weather History & Observations

Time (EDT) Temp. Windchill Dew Point Humidity Pressure Visibility Wind Dir Wind Speed Gust Speed Precip Events Conditions
12:15 AM 51.4 °F - 27.7 °F 40% 29.92 in 10.0 mi Calm Calm - N/A   Scattered Clouds
12:35 AM 52.2 °F - 26.2 °F 37% 29.92 in 10.0 mi Calm Calm - N/A   Scattered Clouds
1:15 AM 47.7 °F - 31.3 °F 53% 29.91 in 10.0 mi Calm Calm - N/A   Clear
1:35 AM 49.1 °F - 29.1 °F 46% 29.91 in 10.0 mi Calm Calm - N/A   Clear
1:55 AM 47.7 °F - 28.9 °F 48% 29.91 in 10.0 mi North 5.8 mph - N/A   Clear
2:15 AM 45.7 °F 43.4 °F 28.8 °F 52% 29.91 in 10.0 mi ENE 4.6 mph - N/A   Clear
2:35 AM 46.0 °F - 29.1 °F 52% 29.91 in 10.0 mi Calm Calm - N/A   Clear
2:55 AM 45.3 °F 42.3 °F 27.5 °F 50% 29.91 in 10.0 mi NE 5.8 mph - N/A   Clear
3:15 AM 46.2 °F - 27.3 °F 48% 29.91 in 10.0 mi Calm Calm - N/A   Scattered Clouds
7:53 AM 46.4 °F - 33.8 °F 62% 29.98 in 10.0 mi Calm Calm - N/A   Partly Cloudy
8:53 AM 51.8 °F - 32.0 °F 47% 29.99 in 10.0 mi Calm Calm - N/A   Clear
10:53 AM 59.0 °F - 26.6 °F 29% 29.98 in 10.0 mi NE 3.5 mph - N/A   Clear
11:53 AM 60.8 °F - 32.0 °F 34% 29.98 in 10.0 mi NNE 4.6 mph - N/A   Clear
12:53 PM 64.4 °F - 28.4 °F 26% 29.96 in 10.0 mi NNW 6.9 mph 16.1 mph N/A   Clear
1:53 PM 66.2 °F - 32.0 °F 28% 29.95 in 10.0 mi NNW 8.1 mph - N/A   Clear
2:53 PM 68.0 °F - 28.4 °F 23% 29.95 in 10.0 mi NNW 9.2 mph - N/A   Clear
3:53 PM 69.8 °F - 28.4 °F 21% 29.94 in 10.0 mi NNW 9.2 mph - N/A   Clear
4:53 PM 71.6 °F - 19.4 °F 14% 29.95 in 10.0 mi North 6.9 mph - N/A   Clear
5:53 PM 69.8 °F - 19.4 °F 15% 29.95 in 10.0 mi North 8.1 mph - N/A   Clear
6:53 PM 69.8 °F - 17.6 °F 14% 29.97 in 10.0 mi NNW 8.1 mph - N/A   Clear
7:53 PM 66.2 °F - 21.2 °F 18% 29.99 in 10.0 mi Variable 4.6 mph - N/A   Clear
8:53 PM 62.6 °F - 21.2 °F 20% 30.02 in 10.0 mi Variable 4.6 mph - N/A   Clear
9:55 PM 57.6 °F - 25.9 °F 30% 30.05 in 10.0 mi NE 8.1 mph - N/A   Clear
10:15 PM 56.5 °F - 26.1 °F 31% 30.06 in 10.0 mi NE 10.4 mph - N/A   Clear
10:35 PM 56.3 °F - 25.9 °F 31% 30.07 in 10.0 mi NE 9.2 mph - N/A   Clear
10:55 PM 54.7 °F - 26.6 °F 34% 30.08 in 10.0 mi NE 6.9 mph - N/A   Clear
11:15 PM 54.5 °F - 26.6 °F 34% 30.09 in 10.0 mi NE 6.9 mph - N/A   Clear
11:55 PM 52.7 °F - 26.6 °F 36% 30.10 in 10.0 mi NE 6.9 mph - N/A   Clear